Location: Fours
(44.3167°N, 6.7000°E)
Time: 09:16:17
(UTC+00:00)

ISS - Pass Details

Date: 01 October 2021
Orbit: 417 x 423 km, 51.6° (Epoch: 27 October)

Event Time Altitude Azimuth Distance (km) Brightness Sun altitude
Rises 18:16:19 0° 302° (WNW) 2,366 1.4 -12.0°
Reaches altitude 10° 18:18:29 10° 309° (NW) 1,501 0.0 -12.4°
Maximum altitude 18:21:42 41° 22° (NNE) 620 -3.0 -13.0°
Enters shadow 18:23:20 23° 79° (E) 930 -2.6 -13.3°
